Content
SEND FEEDBACK

Daily
Averages
Monthly
Summary
United States of America

TARKIO, MISSOURI


Home > North America > United States > Missouri
Elevation: 283 meters     Latitude: 40 27N     Longitude: 095 22W

WEATHER
 
SELECT A DAY
Number of Records: 424,444;   Date Range: 2/11/95 - 9/30/14
 
SHARE

PRINT THIS DATA

[ ← Previous Day ]
WEATHER ALMANAC - 13 FEBRUARY, 2013
[ Next Day → ]
[ °F ]   °C
Weather ElementAverageHighLow
Temperature2.2 °C12 °C (2:55 pm)-6 °C (6:15 am)
Dewpoint-5.2 °C-2 °C (11:35 am)-9 °C (7:35 am)
Humidity62 %86 % (6:15 am)28 % (4:15 pm)
Barometer1010.2 hPa1013.2 hPa (12:35 am)1007.5 hPa (4:55 pm)
Wind Speed9.2 km/h22.2 km/h (3:15 pm)
Wind Gust27.8 km/h (4:35 pm)
Weather ElementAverage
Visibility16.1 km
Wind DirectionSSW (212.4 °)

Weather ElementTotal
Precipitation---
Heating Degree Days15.3 (Base 18.3)
Averaged from 71 records on 13 February, 2013
WEATHER CONDITIONS BREAKOUT
WIND DIRECTION BREAKOUT
WEATHER BY HOUR - 13 FEBRUARY, 2013
[ °F ]   °C
Local TimeTemperatureDewpointHumidityBarometerVisibilityWind DirectionWind SpeedGust SpeedPrecipitationEventsConditions
12:35 AM-4 °C-7 °C80 %1013.2 hPa16.1 kmCalmScattered Clouds
12:55 AM-4 °C-7 °C80 %1013.2 hPa16.1 kmWSW (250°)5.6 km/hClear
1:15 AM-4 °C-8 °C74 %1013.2 hPa16.1 kmWest (270°)5.6 km/hScattered Clouds
1:35 AM-5 °C-8 °C80 %1013.2 hPa16.1 kmCalmScattered Clouds
1:55 AM-4 °C-7 °C80 %1012.9 hPa16.1 kmWSW (240°)5.6 km/hScattered Clouds
2:15 AM-4 °C-8 °C74 %1012.9 hPa16.1 kmSW (230°)5.6 km/hScattered Clouds
2:35 AM-4 °C-7 °C80 %1012.9 hPa16.1 kmWSW (250°)5.6 km/hScattered Clouds
2:55 AM-5 °C-8 °C80 %1012.9 hPa16.1 kmWSW (250°)5.6 km/hScattered Clouds
3:15 AM-4 °C-8 °C74 %1012.5 hPa16.1 kmCalmScattered Clouds
3:35 AM-4 °C-8 °C74 %1012.2 hPa16.1 kmSW (220°)5.6 km/hScattered Clouds
3:55 AM-4 °C-7 °C80 %1012.2 hPa16.1 kmSW (220°)5.6 km/hScattered Clouds
4:15 AM-4 °C-8 °C74 %1011.9 hPa16.1 kmSW (220°)5.6 km/hScattered Clouds
4:35 AM-4 °C-8 °C74 %1011.9 hPa16.1 kmSW (230°)5.6 km/hScattered Clouds
4:55 AM-4 °C-8 °C74 %1011.9 hPa16.1 kmCalmClear
5:15 AM-5 °C-8 °C80 %1011.9 hPa16.1 kmSW (220°)5.6 km/hScattered Clouds
5:35 AM-4 °C-8 °C74 %1011.5 hPa16.1 kmSSW (210°)5.6 km/hScattered Clouds
5:55 AM-5 °C-8 °C80 %1011.2 hPa16.1 kmSW (220°)7.4 km/hScattered Clouds
6:15 AM-6 °C-8 °C86 %1011.5 hPa16.1 kmCalmScattered Clouds
6:35 AM-6 °C-8 °C86 %1011.5 hPa16.1 kmWSW (240°)5.6 km/hScattered Clouds
6:55 AM-6 °C-8 °C86 %1011.5 hPa16.1 kmWSW (240°)5.6 km/hScattered Clouds
7:15 AM-6 °C-8 °C86 %1011.5 hPa16.1 kmCalmScattered Clouds
7:35 AM-6 °C-9 °C80 %1011.9 hPa16.1 kmSW (220°)5.6 km/hScattered Clouds
7:55 AM-4 °C-7 °C80 %1011.9 hPa16.1 kmCalmClear
8:15 AM-4 °C-7 °C80 %1011.9 hPa16.1 kmCalmClear
8:35 AM-2 °C-6 °C74 %1011.9 hPa16.1 kmCalmClear
8:55 AM-1 °C-5 °C75 %1011.9 hPa16.1 kmWSW (250°)7.4 km/hClear
9:15 AM1 °C-4 °C70 %1011.9 hPa16.1 kmWest (270°)9.3 km/hClear
9:35 AM1 °C-3 °C75 %1011.9 hPa16.1 kmWest (260°)7.4 km/hClear
9:55 AM2 °C-3 °C70 %1011.9 hPa16.1 kmWest (270°)7.4 km/hClear
10:15 AM2 °C-3 °C70 %1011.9 hPa16.1 kmWest (280°)7.4 km/hClear
10:35 AM3 °C-3 °C65 %1011.9 hPa16.1 kmWSW (250°)11.1 km/hClear
10:55 AM4 °C-3 °C61 %1011.9 hPa16.1 kmWest (260°)9.3 km/hClear
11:15 AM5 °C-3 °C57 %1011.5 hPa16.1 kmWest (260°)9.3 km/hClear
11:35 AM6 °C-2 °C57 %1011.2 hPa16.1 kmSW (230°)13 km/hClear
11:55 AM7 °C-3 °C49 %1011.2 hPa16.1 kmWSW (250°)14.8 km/hClear
12:15 PM8 °C-3 °C46 %1010.8 hPa16.1 kmWest (260°)16.7 km/hClear
12:35 PM8 °C-3 °C46 %1010.5 hPa16.1 kmWest (260°)14.8 km/hClear
12:55 PM9 °C-3 °C43 %1009.8 hPa16.1 kmSW (220°)16.7 km/hClear
1:15 PM9 °C-4 °C40 %1009.5 hPa16.1 kmWest (260°)18.5 km/hClear
1:35 PM10 °C-4 °C37 %1009.5 hPa16.1 kmWSW (250°)14.8 km/hClear
1:55 PM11 °C-5 °C33 %1009.1 hPa16.1 kmWSW (250°)18.5 km/hClear
2:15 PM11 °C-6 °C30 %1008.8 hPa16.1 kmWSW (240°)16.7 km/h25.9 km/hClear
2:35 PM11 °C-6 °C30 %1008.8 hPa16.1 kmWest (260°)20.4 km/hClear
2:55 PM12 °C-4 °C33 %1008.5 hPa16.1 kmWest (260°)16.7 km/h25.9 km/hClear
3:15 PM12 °C-5 °C30 %1008.5 hPa16.1 kmWSW (250°)22.2 km/hClear
3:35 PM12 °C-5 °C30 %1008.5 hPa16.1 kmWest (270°)18.5 km/hClear
3:55 PM12 °C-5 °C30 %1008.1 hPa16.1 kmWSW (240°)18.5 km/hClear
4:15 PM12 °C-6 °C28 %1008.1 hPa16.1 kmWest (260°)20.4 km/hClear
4:35 PM12 °C-6 °C28 %1007.8 hPa16.1 kmWSW (250°)20.4 km/h27.8 km/hClear
4:55 PM11 °C-5 °C33 %1007.5 hPa16.1 kmWSW (250°)18.5 km/hClear
5:15 PM9 °C-3 °C43 %1007.8 hPa16.1 kmWSW (250°)14.8 km/hClear
5:35 PM8 °C-3 °C46 %1007.8 hPa16.1 kmWest (260°)9.3 km/hClear
5:55 PM7 °C-3 °C49 %1008.1 hPa16.1 kmWSW (250°)13 km/hClear
6:15 PM6 °C-3 °C53 %1008.1 hPa16.1 kmSW (230°)9.3 km/hScattered Clouds
6:35 PM4 °C-3 °C61 %1008.1 hPa16.1 kmWSW (240°)9.3 km/hScattered Clouds
6:55 PM4 °C-4 °C56 %1007.8 hPa16.1 kmSW (220°)9.3 km/hScattered Clouds
7:15 PM4 °C-3 °C61 %1007.8 hPa16.1 kmWSW (240°)7.4 km/hScattered Clouds
7:35 PM3 °C-3 °C65 %1007.8 hPa16.1 kmWSW (240°)7.4 km/hMostly Cloudy
7:55 PM3 °C-3 °C65 %1007.8 hPa16.1 kmWSW (240°)5.6 km/hMostly Cloudy
8:15 PM4 °C-3 °C61 %1008.1 hPa16.1 kmWSW (240°)9.3 km/hScattered Clouds
8:35 PM3 °C-3 °C65 %1007.8 hPa16.1 kmSW (230°)13 km/hScattered Clouds
8:55 PM2 °C-4 °C65 %1008.1 hPa16.1 kmWSW (250°)11.1 km/hScattered Clouds
9:15 PM2 °C-4 °C65 %1008.1 hPa16.1 kmWSW (240°)11.1 km/hScattered Clouds
9:35 PM2 °C-4 °C65 %1008.1 hPa16.1 kmSW (230°)7.4 km/hScattered Clouds
9:55 PM2 °C-4 °C65 %1008.1 hPa16.1 kmWSW (240°)9.3 km/hScattered Clouds
10:15 PM2 °C-4 °C65 %1008.1 hPa16.1 kmSW (220°)7.4 km/hScattered Clouds
10:35 PM3 °C-4 °C60 %1008.1 hPa16.1 kmSSW (210°)7.4 km/hScattered Clouds
10:55 PM3 °C-4 °C60 %1008.5 hPa16.1 kmSSW (210°)7.4 km/hScattered Clouds
11:15 PM3 °C-4 °C60 %1008.8 hPa16.1 kmWSW (240°)5.6 km/hClear
11:35 PM3 °C-3 °C65 %1008.8 hPa16.1 kmWest (270°)5.6 km/hMostly Cloudy
11:55 PM2 °C-3 °C70 %1008.8 hPa16.1 kmWSW (240°)5.6 km/hMostly Cloudy
Hourly data recorded from KSDA, located 0 kilometers away from Tarkio, Missouri







STORIES FROM OUR PARTNERS